< < Back
Terminal Aerodrome Forecast


Current Version              Previous Versions:   1  2  3  4  5  6  7  8  9  

Terminal Aerodrome Forecast

741
FTUS44 KBMX 071720
TAFMGM
TAF
KMGM 071720Z 0718/0818 31012KT P6SM SCT250
     FM080000 24003KT P6SM SCT150
     FM081200 26008KT P6SM BKN050=

Latest METAR

160
SAUS80 KWBC 081000 RRA
MTRMGM
METAR KMGM 080953Z AUTO 20006KT 10SM CLR 04/M03 A2996 RMK AO2 SLP144
T00391033


USA.gov is the U.S. government's official web portal to all federal, state and local government web resources and services.